Location: Lafig�re
(44.4503°N, 4.0357°E)
Time: 16:15:09
(UTC+00:00)

Cosmos 1536 Rocket - Pass Details

Date: 24 September 2020
Orbit: 606 x 632 km, 82.5° (Epoch: 26 October)

Event Time Altitude Azimuth Distance (km) Brightness Sun altitude
Rises 18:38:16 0° 354° (N) 2,924 7.3 -11.7°
Reaches altitude 10° 18:40:32 10° 357° (N) 2,015 6.4 -12.1°
Maximum altitude 18:44:59 67° 80° (E) 686 3.5 -12.9°
Drops below altitude 10° 18:49:25 10° 163° (SSE) 2,007 5.9 -13.7°
Sets 18:51:39 0° 166° (SSE) 2,911 6.7 -14.1°
